CW2157 Weather Reports


Display with metric or nautical units.
time (UTC)temp
F
wind
direction
speed
MPH
gust
MPH
rain 1hr
in
rain 24hr
in
rain mn
in
humidity
%
barometer
mb
20260507042704 65 352 2.0 3.0 0.00 0.05 0.00 86 1008.0
20260507042205 65 277 1.0 3.0 0.00 0.05 0.00 87 1008.0
20260507041705 65 225 2.0 5.0 0.00 0.05 0.00 87 1007.9
20260507041205 65 228 2.0 5.0 0.00 0.05 0.00 87 1007.7
20260507040705 65 235 1.0 3.0 0.00 0.05 0.00 87 1007.7
20260507040205 65 325 5.0 14.0 0.00 0.05 0.00 88 1007.6
20260507035704 65 238 1.0 5.0 0.00 0.05 0.05 88 1007.7
20260507034704 65 203 4.0 5.0 0.00 0.05 0.05 88 1007.5
20260507034204 65 211 3.0 5.0 0.00 0.05 0.05 88 1007.6
20260507033704 65 215 5.0 5.0 0.00 0.05 0.05 88 1007.5
20260507033205 65 216 3.0 5.0 0.00 0.05 0.05 88 1007.4
20260507032704 65 221 5.0 5.0 0.00 0.05 0.05 88 1007.4
20260507032204 65 213 3.0 3.0 0.00 0.05 0.05 88 1007.2
20260507031704 65 219 2.0 3.0 0.00 0.05 0.05 88 1007.2
20260507030205 64 210 3.0 5.0 0.00 0.05 0.05 89 1007.1
20260507025704 64 218 2.0 5.0 0.00 0.05 0.05 89 1007.2
20260507024705 64 195 4.0 7.0 0.00 0.05 0.05 89 1007.0
20260507024205 64 189 5.0 6.0 0.00 0.05 0.05 89 1007.1
20260507023705 64 184 5.0 7.0 0.00 0.05 0.05 89 1007.3
20260507022704 64 204 5.0 7.0 0.00 0.05 0.05 89 1007.5
20260507022205 64 210 4.0 6.0 0.00 0.05 0.05 89 1007.5
20260507021705 64 188 2.0 3.0 0.00 0.05 0.05 89 1007.5
20260507021204 64 204 2.0 3.0 0.00 0.05 0.05 89 1007.4
20260507020705 64 178 2.0 3.0 0.00 0.05 0.05 89 1007.4
20260507020204 64 169 0.0 1.0 0.00 0.05 0.05 89 1007.5
20260507015705 64 169 2.0 3.0 0.00 0.05 0.05 89 1007.5
20260507015204 64 239 1.0 2.0 0.00 0.05 0.05 88 1007.6
20260507014704 64 239 0.0 1.0 0.00 0.05 0.05 88 1007.7
20260507013704 64 239 0.0 0.0 0.00 0.05 0.05 88 1007.8
20260507013204 64 239 1.0 3.0 0.00 0.05 0.05 87 1008.0
20260507012705 64 233 3.0 5.0 0.00 0.05 0.05 87 1008.1
20260507012205 64 231 2.0 3.0 0.00 0.05 0.05 87 1008.1
20260507011704 64 227 1.0 3.0 0.00 0.05 0.05 86 1008.0
20260507010204 64 233 3.0 5.0 0.00 0.05 0.05 85 1007.5
20260507005704 65 226 2.0 3.0 0.00 0.05 0.05 85 1007.7
20260507005205 65 202 1.0 3.0 0.00 0.05 0.05 84 1007.3
20260507004704 65 194 1.0 3.0 0.00 0.05 0.05 82 1007.4
20260507004205 65 158 2.0 2.0 0.00 0.05 0.05 83 1007.4
20260507003704 65 242 0.0 0.0 0.00 0.05 0.05 83 1007.4
20260507003204 65 242 0.0 1.0 0.00 0.05 0.05 83 1007.4
20260507002704 66 242 2.0 3.0 0.00 0.05 0.05 83 1007.3
20260507002204 66 219 4.0 7.0 0.00 0.05 0.05 82 1007.2
20260507001205 67 222 5.0 5.0 0.00 0.05 0.05 81 1007.1
20260507000705 67 226 5.0 6.0 0.00 0.05 0.05 81 1007.2
20260507000205 67 230 6.0 7.0 0.00 0.05 0.05 80 1007.2
20260506235704 67 229 5.0 7.0 0.00 0.05 0.05 80 1007.2
20260506234705 68 215 6.0 8.0 0.00 0.05 0.05 79 1007.0
20260506234204 68 208 6.0 8.0 0.00 0.05 0.05 78 1006.9
20260506233704 68 213 6.0 7.0 0.00 0.05 0.05 78 1007.0
20260506233204 68 221 5.0 7.0 0.00 0.05 0.05 78 1007.0
20260506232705 68 210 6.0 6.0 0.00 0.05 0.05 78 1007.0
20260506232204 69 211 5.0 8.0 0.00 0.05 0.05 78 1007.0
20260506231704 69 193 5.0 7.0 0.00 0.05 0.05 78 1007.0
20260506231204 69 199 6.0 9.0 0.00 0.05 0.05 78 1006.9
20260506230704 69 194 5.0 7.0 0.00 0.05 0.05 77 1006.9
20260506230204 69 197 5.0 9.0 0.00 0.05 0.05 78 1006.9
20260506225204 69 186 6.0 7.0 0.00 0.05 0.05 77 1006.9
20260506224704 69 214 6.0 10.0 0.00 0.05 0.05 77 1007.0
20260506224204 69 216 6.0 8.0 0.00 0.05 0.05 77 1007.1
20260506223704 69 214 7.0 9.0 0.00 0.05 0.05 78 1006.9
20260506223205 69 216 7.0 12.0 0.00 0.05 0.05 78 1007.0
20260506222705 69 217 8.0 12.0 0.00 0.05 0.05 77 1007.0
20260506222204 69 217 9.0 12.0 0.00 0.05 0.05 77 1006.9
20260506221705 69 216 10.0 12.0 0.00 0.05 0.05 76 1006.9
20260506221204 69 218 10.0 18.0 0.00 0.05 0.05 76 1007.0
20260506220704 69 225 10.0 15.0 0.00 0.05 0.05 76 1007.0
20260506220204 70 219 10.0 14.0 0.00 0.05 0.05 77 1007.0
20260506215704 70 216 10.0 14.0 0.00 0.05 0.05 77 1007.0
20260506215205 70 218 11.0 17.0 0.00 0.05 0.05 77 1006.9
20260506214705 70 218 12.0 18.0 0.00 0.05 0.05 77 1007.0
20260506214204 70 222 14.0 20.0 0.00 0.05 0.05 75 1007.0
20260506213704 70 229 13.0 17.0 0.00 0.05 0.05 76 1006.9
20260506213205 70 224 14.0 20.0 0.00 0.05 0.05 77 1006.7
20260506212705 70 218 15.0 18.0 0.00 0.05 0.05 77 1006.7
20260506212204 70 212 14.0 18.0 0.00 0.05 0.05 76 1006.6
20260506211704 70 216 16.0 22.0 0.00 0.05 0.05 75 1006.7
20260506210704 70 219 14.0 20.0 0.00 0.05 0.05 76 1006.6
20260506210204 70 220 15.0 21.0 0.00 0.05 0.05 76 1006.6
20260506205704 70 222 15.0 20.0 0.00 0.05 0.05 77 1006.5
20260506205204 69 225 14.0 20.0 0.00 0.05 0.05 77 1006.5
20260506204704 69 218 14.0 20.0 0.00 0.05 0.05 76 1006.6
20260506204204 69 215 14.0 20.0 0.00 0.05 0.05 77 1006.5
20260506203204 69 219 15.0 20.0 0.00 0.05 0.05 78 1006.6
20260506202704 69 221 15.0 20.0 0.00 0.05 0.05 78 1006.6
20260506202204 69 216 17.0 22.0 0.00 0.05 0.05 77 1006.3
20260506201704 69 219 16.0 23.0 0.00 0.05 0.05 77 1006.4
20260506201204 69 211 17.0 22.0 0.00 0.05 0.05 77 1006.3
20260506200704 69 214 14.0 22.0 0.00 0.05 0.05 78 1006.5
20260506200204 69 207 17.0 22.0 0.00 0.05 0.05 77 1006.5
20260506195704 69 210 16.0 21.0 0.00 0.05 0.05 77 1006.6
20260506195204 69 224 16.0 20.0 0.00 0.05 0.05 77 1006.8
20260506194704 69 216 14.0 20.0 0.00 0.05 0.05 77 1006.9
20260506194204 69 215 16.0 22.0 0.00 0.05 0.05 77 1007.0
20260506193704 69 206 13.0 22.0 0.00 0.05 0.05 76 1007.0
20260506193204 69 211 15.0 20.0 0.00 0.05 0.05 77 1007.0
20260506192704 69 207 16.0 23.0 0.00 0.05 0.05 76 1006.9
20260506191704 69 203 16.0 20.0 0.00 0.05 0.05 77 1007.0
20260506191204 69 203 15.0 22.0 0.00 0.05 0.05 76 1007.2
20260506185704 69 201 13.0 18.0 0.00 0.05 0.05 77 1007.0
20260506185204 69 211 14.0 20.0 0.00 0.05 0.05 77 1007.2
20260506184704 69 208 14.0 21.0 0.00 0.05 0.05 77 1007.2
20260506184204 68 206 13.0 20.0 0.00 0.05 0.05 77 1007.3
20260506183704 68 208 16.0 23.0 0.00 0.05 0.05 77 1007.3
20260506183204 69 208 14.0 21.0 0.00 0.05 0.05 76 1007.6
20260506182704 69 203 16.0 26.0 0.00 0.05 0.05 76 1007.8
20260506182204 69 204 17.0 26.0 0.00 0.05 0.05 77 1007.9
20260506181704 69 213 18.0 24.0 0.00 0.05 0.05 78 1008.0
20260506181204 69 213 19.0 23.0 0.00 0.05 0.05 77 1007.9
20260506180704 68 211 20.0 26.0 0.00 0.05 0.05 80 1008.1
20260506180204 68 204 20.0 28.0 0.00 0.05 0.05 80 1008.0
20260506175704 68 202 17.0 21.0 0.00 0.05 0.05 79 1007.9
20260506175205 68 213 16.0 22.0 0.00 0.05 0.05 79 1008.2
20260506174704 68 208 20.0 26.0 0.00 0.05 0.05 80 1008.3
20260506174205 67 210 17.0 25.0 0.00 0.05 0.05 79 1008.2
20260506173704 67 211 18.0 28.0 0.00 0.05 0.05 80 1008.3
20260506173204 67 204 17.0 25.0 0.00 0.05 0.05 80 1008.3
20260506172704 67 207 16.0 25.0 0.00 0.05 0.05 80 1008.3
20260506171704 67 209 20.0 26.0 0.00 0.05 0.05 81 1008.1
20260506170704 66 206 17.0 25.0 0.01 0.05 0.05 82 1008.3
20260506170204 66 203 17.0 25.0 0.02 0.05 0.05 81 1008.4
20260506165704 66 200 20.0 26.0 0.02 0.05 0.05 80 1008.4
20260506165204 66 203 18.0 30.0 0.02 0.05 0.05 81 1008.2
20260506164705 66 205 20.0 28.0 0.02 0.05 0.05 82 1008.2
20260506164204 66 208 19.0 26.0 0.02 0.05 0.05 81 1008.3
20260506163704 66 204 16.0 25.0 0.02 0.05 0.05 83 1008.5
20260506163204 65 211 18.0 25.0 0.02 0.05 0.05 85 1008.5
20260506162704 65 213 16.0 23.0 0.02 0.05 0.05 85 1008.5
20260506162204 64 199 15.0 22.0 0.02 0.05 0.05 84 1008.5
20260506161704 64 204 16.0 23.0 0.02 0.05 0.05 84 1008.6
20260506161204 64 207 16.0 29.0 0.03 0.05 0.05 83 1008.7
20260506160704 65 194 16.0 24.0 0.02 0.04 0.04 83 1008.7
20260506160204 65 206 19.0 30.0 0.01 0.03 0.03 82 1008.7
20260506155704 65 196 13.0 20.0 0.02 0.03 0.03 83 1008.7
20260506155204 65 318 12.0 21.0 0.02 0.03 0.03 84 1008.9
20260506154704 64 205 15.0 23.0 0.03 0.03 0.03 83 1009.2
20260506154204 64 325 12.0 17.0 0.03 0.03 0.03 82 1009.2
20260506153204 64 206 12.0 20.0 0.03 0.03 0.03 82 1009.5
20260506152704 64 253 13.0 18.0 0.03 0.03 0.03 81 1009.6
20260506151704 65 216 11.0 20.0 0.03 0.03 0.03 81 1009.5
20260506151204 65 244 12.0 16.0 0.02 0.02 0.02 80 1009.5
20260506150704 65 208 12.0 21.0 0.02 0.02 0.02 80 1009.6
20260506150204 65 215 13.0 18.0 0.02 0.02 0.02 79 1009.6
20260506145204 66 325 14.0 18.0 0.01 0.01 0.01 78 1009.7
20260506144704 66 234 13.0 16.0 0.00 0.00 0.00 78 1009.6
20260506144205 66 218 12.0 20.0 0.00 0.00 0.00 77 1009.5
20260506143704 66 6 13.0 17.0 0.00 0.00 0.00 77 1009.6
20260506143204 67 332 13.0 17.0 0.00 0.00 0.00 77 1009.6
20260506142704 67 220 12.0 18.0 0.00 0.00 0.00 75 1009.7
20260506142204 67 271 14.0 21.0 0.00 0.00 0.00 74 1009.6
20260506141704 67 233 12.0 17.0 0.00 0.00 0.00 72 1009.5
20260506140704 67 225 13.0 17.0 0.00 0.00 0.00 71 1009.6
20260506140204 67 257 14.0 21.0 0.00 0.00 0.00 71 1009.6
20260506135704 67 228 15.0 20.0 0.00 0.00 0.00 71 1009.6
20260506134704 67 261 13.0 18.0 0.00 0.00 0.00 71 1009.5
20260506133704 67 303 13.0 21.0 0.00 0.00 0.00 72 1009.5
20260506133204 67 207 16.0 25.0 0.00 0.00 0.00 72 1009.5
20260506132704 67 223 13.0 20.0 0.00 0.00 0.00 72 1009.4
20260506132204 67 184 13.0 21.0 0.00 0.00 0.00 71 1009.4
20260506131704 67 208 13.0 21.0 0.00 0.00 0.00 71 1009.5
20260506131204 67 211 13.0 23.0 0.00 0.00 0.00 71 1009.6
20260506130704 67 195 13.0 20.0 0.00 0.00 0.00 71 1009.5
20260506130203 66 207 13.0 18.0 0.00 0.00 0.00 71 1009.5
20260506125703 66 326 13.0 21.0 0.00 0.00 0.00 72 1009.5
20260506125204 66 261 12.0 26.0 0.00 0.00 0.00 72 1009.5
20260506124704 66 233 11.0 17.0 0.00 0.00 0.00 72 1009.5
20260506124203 66 242 14.0 20.0 0.00 0.00 0.00 71 1009.5
20260506123204 66 212 14.0 20.0 0.00 0.00 0.00 71 1009.6
20260506122704 66 195 14.0 20.0 0.00 0.00 0.00 72 1009.7
20260506122204 66 210 16.0 21.0 0.00 0.00 0.00 71 1009.7
20260506121704 66 204 14.0 21.0 0.00 0.00 0.00 72 1009.7
20260506121204 66 217 13.0 23.0 0.00 0.00 0.00 71 1009.8
20260506120704 66 8 13.0 23.0 0.00 0.00 0.00 71 1009.7
20260506120204 66 171 14.0 23.0 0.00 0.00 0.00 71 1009.7
20260506115704 66 236 14.0 24.0 0.00 0.00 0.00 72 1009.8
20260506115203 66 223 14.0 24.0 0.00 0.00 0.00 71 1009.8
20260506114703 67 3 16.0 23.0 0.00 0.00 0.00 71 1009.6
20260506114204 67 235 14.0 22.0 0.00 0.00 0.00 71 1009.6
20260506113703 66 353 12.0 22.0 0.00 0.00 0.00 71 1009.6
20260506113204 66 174 14.0 22.0 0.00 0.00 0.00 72 1009.4
20260506112704 66 3 13.0 23.0 0.00 0.00 0.00 72 1009.4
20260506112203 66 186 12.0 21.0 0.00 0.00 0.00 73 1009.5
20260506111704 65 159 14.0 20.0 0.00 0.00 0.00 74 1009.5
20260506111204 65 14 13.0 21.0 0.00 0.00 0.00 75 1009.4
20260506110704 65 198 14.0 20.0 0.00 0.00 0.00 74 1009.4
20260506110204 65 217 12.0 15.0 0.00 0.00 0.00 75 1009.3
20260506105704 65 212 12.0 17.0 0.00 0.00 0.00 75 1009.3
20260506105204 65 176 12.0 17.0 0.00 0.00 0.00 74 1009.3
20260506104204 65 343 12.0 18.0 0.00 0.00 0.00 75 1009.2
20260506103204 65 216 14.0 22.0 0.00 0.00 0.00 76 1009.4
20260506102704 65 251 13.0 21.0 0.00 0.00 0.00 76 1009.3
20260506102203 64 186 12.0 20.0 0.00 0.00 0.00 76 1009.1
20260506101704 64 173 12.0 18.0 0.00 0.00 0.00 76 1009.1
20260506101204 64 185 13.0 20.0 0.00 0.00 0.00 76 1009.2
20260506100204 65 180 14.0 26.0 0.00 0.00 0.00 76 1009.4
20260506095706 65 196 14.0 22.0 0.00 0.00 0.00 76 1009.4
20260506095205 65 216 13.0 20.0 0.00 0.00 0.00 76 1009.4
20260506094205 65 199 14.0 21.0 0.00 0.00 0.00 76 1009.3
20260506093705 65 191 15.0 26.0 0.00 0.00 0.00 76 1009.5
20260506093206 65 192 14.0 22.0 0.00 0.00 0.00 76 1009.3
20260506092706 65 212 14.0 22.0 0.00 0.00 0.00 76 1009.3
20260506092205 65 200 15.0 23.0 0.00 0.00 0.00 76 1009.3
20260506091705 65 221 14.0 22.0 0.00 0.00 0.00 76 1009.4
20260506091205 65 195 14.0 22.0 0.00 0.00 0.00 76 1009.4
20260506090705 65 190 13.0 22.0 0.00 0.00 0.00 76 1009.3
20260506090205 65 201 14.0 24.0 0.00 0.00 0.00 76 1009.3
20260506085706 65 346 14.0 23.0 0.00 0.00 0.00 76 1009.3
20260506085206 65 212 12.0 18.0 0.00 0.00 0.00 76 1009.3
20260506084705 65 194 13.0 20.0 0.00 0.00 0.00 75 1009.4
20260506083706 65 201 14.0 21.0 0.00 0.00 0.00 75 1009.3
20260506083206 65 203 13.0 21.0 0.00 0.00 0.00 76 1009.3
20260506082706 65 186 14.0 20.0 0.00 0.00 0.00 75 1009.3
20260506081705 65 254 15.0 23.0 0.00 0.00 0.00 76 1009.2
20260506081205 65 201 13.0 23.0 0.00 0.00 0.00 75 1009.2
20260506080706 65 207 13.0 20.0 0.00 0.00 0.00 75 1009.3
20260506072705 66 219 14.0 23.0 0.00 0.00 0.00 75 1009.6
20260506072206 66 200 14.0 24.0 0.00 0.00 0.00 75 1009.6
20260506071705 66 195 14.0 23.0 0.00 0.00 0.00 75 1009.6
20260506071206 66 200 15.0 21.0 0.00 0.00 0.00 75 1009.6
20260506070706 66 204 16.0 26.0 0.00 0.00 0.00 74 1009.7
20260506070206 66 203 15.0 23.0 0.00 0.00 0.00 74 1009.6
20260506062206 67 180 13.0 23.0 0.00 0.00 0.00 73 1009.7
20260506061706 67 206 15.0 26.0 0.00 0.00 0.00 73 1009.7
20260506061205 67 195 15.0 28.0 0.00 0.00 0.00 73 1009.7
20260506060706 67 201 16.0 23.0 0.00 0.00 0.00 73 1009.7
20260506060206 67 209 14.0 24.0 0.00 0.00 0.00 73 1009.7
20260506051205 68 193 17.0 26.0 0.00 0.00 0.00 71 1010.2
20260506050706 68 202 14.0 30.0 0.00 0.00 0.00 71 1010.1
20260506050206 68 201 14.0 26.0 0.00 0.00 0.00 71 1010.1
20260506044706 69 209 13.0 21.0 0.00 0.00 0.00 70 1010.2
20260506044205 68 192 17.0 23.0 0.00 0.00 0.00 70 1010.2
20260506043705 68 212 14.0 22.0 0.00 0.00 0.00 70 1010.2
20260506043205 68 205 14.0 20.0 0.00 0.00 0.00 71 1010.1